Tracking 28790 objects as of 19-Apr-2024
HD Live streaming from Space Station
objects crossing your sky now

SL-8 DEB

Track SL-8 DEB now!
10-day predictions


NORAD ID: 39696
Int'l Code: 1991-009DK
Perigee: 1,448.7 km
Apogee: 1,735.1 km
Inclination: 74.1 °
Period: 117.9 minutes
Semi major axis: 7962 km
RCS: 0.0201 m2 (small)
Launch date: February 12, 1991
Source: Commonwealth of Independent States (former USSR) (CIS)
Launch site: PLESETSK MISSILE AND SPACE COMPLEX (PKMTR)

Note: This is SATELLITE DEBRIS
Your satellite tracking list
Your tracking list is empty




NASA's NSSDC Master Catalog

Two Line Element Set (TLE):
1 39696U 91009DK  24089.79818472  .00000242  00000-0  23086-2 0  9990
2 39696  74.0514 118.3942 0179872 320.0774 152.7200 12.21787865822861
Source of the keplerian elements: AFSPC